Back to catalog

FENGYUN 1C DEB

AliveSSO
NORAD 31181·DEBRIS·🇨🇳 China

Launched May 10, 1999 from Taiyuan Satellite Launch Center

Loading…

Next Passes (next 24 hours)

TLE

FreshSource: Space-Track

Epoch: Sep 14, 2026, 08:27 UTC

1 31181U 99025BJK 26257.35238476  .00000905  00000-0  50639-3 0  9999
2 31181  98.7541 288.7958 0046639  11.4634   1.9264 14.12697256996586

Track FENGYUN 1C DEB in real time with AllMySat

Download on the App Store